Time,TemperatureF,DewpointF,PressureIn,WindDirection,WindDirectionDegrees,WindSpeedMPH,WindSpeedGustMPH,Humidity,HourlyPrecipIn,Conditions,Clouds,dailyrainin,SoftwareType,DateUTC
2014-10-01 00:02:00,64.6,47.1,30.39,South,180,0.0,0.0,53,0.00,,FEW010,0.00,VWS V13.01,2014-10-01 07:02:00,
2014-10-01 00:07:00,64.6,47.6,30.39,South,180,0.0,0.0,54,0.00,,FEW010,0.00,VWS V13.01,2014-10-01 07:07:00,
2014-10-01 00:12:00,64.6,48.1,30.39,South,180,0.0,0.0,55,0.00,,FEW010,0.00,VWS V13.01,2014-10-01 07:12:00,
2014-10-01 00:18:00,64.6,47.6,30.39,South,180,0.0,0.0,54,0.00,,FEW010,0.00,VWS V13.01,2014-10-01 07:18:00,
2014-10-01 00:23:00,64.8,48.7,30.39,South,180,0.0,0.0,56,0.00,,FEW010,0.00,VWS V13.01,2014-10-01 07:23:00,
2014-10-01 00:28:00,64.6,47.6,30.39,South,180,0.0,0.0,54,0.00,,FEW010,0.00,VWS V13.01,2014-10-01 07:28:00,
2014-10-01 00:33:00,64.6,48.1,30.39,South,180,0.0,0.0,55,0.00,,FEW010,0.00,VWS V13.01,2014-10-01 07:33:00,
2014-10-01 00:38:00,64.8,48.7,30.39,South,180,0.0,0.0,56,0.00,,FEW010,0.00,VWS V13.01,2014-10-01 07:38:00,
2014-10-01 00:43:00,64.8,50.1,30.39,South,180,0.0,0.0,59,0.00,,FEW010,0.00,VWS V13.01,2014-10-01 07:43:00,
2014-10-01 00:48:00,65.1,53.9,30.39,South,180,0.0,0.0,67,0.00,,FEW010,0.00,VWS V13.01,2014-10-01 07:48:00,
2014-10-01 00:50:00,65.1,54.3,30.39,South,180,0.0,0.0,68,0.00,,FEW010,0.00,VWS V13.01,2014-10-01 07:50:00,
2014-10-01 00:55:00,65.7,58.3,30.39,South,180,0.0,0.0,77,0.00,,FEW010,0.00,VWS V13.01,2014-10-01 07:55:00,
2014-10-01 01:00:00,66.2,60.2,30.39,South,180,0.0,0.0,81,0.00,,BKN010,0.00,VWS V13.01,2014-10-01 08:00:00,
2014-10-01 01:05:00,66.2,61.2,30.39,South,180,0.0,0.0,84,0.00,,BKN010,0.00,VWS V13.01,2014-10-01 08:05:00,
2014-10-01 01:10:00,66.4,62.1,30.39,South,180,0.0,0.0,86,0.00,,BKN010,0.00,VWS V13.01,2014-10-01 08:10:00,
2014-10-01 01:15:00,66.2,60.9,30.39,South,180,0.0,0.0,83,0.00,,BKN010,0.00,VWS V13.01,2014-10-01 08:15:00,
2014-10-01 01:20:00,66.4,62.1,30.39,South,180,0.0,0.0,86,0.00,,BKN010,0.00,VWS V13.01,2014-10-01 08:20:00,
2014-10-01 01:25:00,66.4,61.7,30.39,South,180,0.0,0.0,85,0.00,,BKN010,0.00,VWS V13.01,2014-10-01 08:25:00,
2014-10-01 01:30:00,66.2,61.6,30.39,South,180,0.0,0.0,85,0.00,,BKN010,0.00,VWS V13.01,2014-10-01 08:30:00,
2014-10-01 01:35:00,66.4,62.1,30.39,South,180,0.0,0.0,86,0.00,,BKN010,0.00,VWS V13.01,2014-10-01 08:35:00,
2014-10-01 01:40:00,66.4,62.1,30.39,South,180,0.0,0.0,86,0.00,,BKN010,0.00,VWS V13.01,2014-10-01 08:40:00,
2014-10-01 01:45:00,66.4,62.1,30.39,South,180,0.0,0.0,86,0.00,,BKN010,0.00,VWS V13.01,2014-10-01 08:45:00,
2014-10-01 01:50:00,66.6,62.6,30.39,South,180,0.0,0.0,87,0.00,,BKN010,0.00,VWS V13.01,2014-10-01 08:50:00,
2014-10-01 01:55:00,66.6,61.9,30.39,South,180,0.0,0.0,85,0.00,,BKN010,0.00,VWS V13.01,2014-10-01 08:55:00,
2014-10-01 02:00:00,66.6,61.9,30.39,South,180,0.0,0.0,85,0.00,,OVC010,0.00,VWS V13.01,2014-10-01 09:00:00,
2014-10-01 02:05:00,66.6,61.2,30.39,South,180,0.0,0.0,83,0.00,,OVC010,0.00,VWS V13.01,2014-10-01 09:05:00,
2014-10-01 02:10:00,66.4,60.4,30.39,South,180,0.0,0.0,81,0.00,,OVC010,0.00,VWS V13.01,2014-10-01 09:10:00,
2014-10-01 02:15:00,66.4,60.0,30.39,South,180,0.0,0.0,80,0.00,,OVC010,0.00,VWS V13.01,2014-10-01 09:15:00,
2014-10-01 02:20:00,66.4,60.0,30.39,South,180,0.0,0.0,80,0.00,,OVC010,0.00,VWS V13.01,2014-10-01 09:20:00,
2014-10-01 02:25:00,66.4,60.0,30.39,South,180,0.0,0.0,80,0.00,,OVC010,0.00,VWS V13.01,2014-10-01 09:25:00,
2014-10-01 02:31:00,66.4,59.7,30.39,South,180,0.0,0.0,79,0.00,,OVC010,0.00,VWS V13.01,2014-10-01 09:31:00,
2014-10-01 02:36:00,66.6,59.5,30.39,South,180,0.0,0.0,78,0.00,,OVC010,0.00,VWS V13.01,2014-10-01 09:36:00,
2014-10-01 02:41:00,66.4,58.6,30.39,South,180,0.0,0.0,76,0.00,,OVC010,0.00,VWS V13.01,2014-10-01 09:41:00,
2014-10-01 02:45:00,66.4,57.5,30.39,South,180,0.0,0.0,73,0.00,,OVC010,0.00,VWS V13.01,2014-10-01 09:45:00,
2014-10-01 02:50:00,66.4,56.3,30.39,South,180,0.0,0.0,70,0.00,,OVC010,0.00,VWS V13.01,2014-10-01 09:50:00,
2014-10-01 02:55:00,66.6,56.5,30.39,South,180,0.0,0.0,70,0.00,,OVC010,0.00,VWS V13.01,2014-10-01 09:55:00,
2014-10-01 03:00:00,66.6,56.5,30.39,South,180,0.0,0.0,70,0.00,,OVC009,0.00,VWS V13.01,2014-10-01 10:00:00,
2014-10-01 03:05:00,66.4,54.3,30.39,South,180,0.0,0.0,65,0.00,,OVC009,0.00,VWS V13.01,2014-10-01 10:05:00,
2014-10-01 03:10:00,66.6,53.6,30.39,South,180,0.0,0.0,63,0.00,,OVC009,0.00,VWS V13.01,2014-10-01 10:10:00,
2014-10-01 03:15:00,66.6,51.3,30.39,South,180,0.0,0.0,58,0.00,,OVC009,0.00,VWS V13.01,2014-10-01 10:15:00,
2014-10-01 03:20:00,66.6,50.9,30.39,South,180,0.0,0.0,57,0.00,,OVC009,0.00,VWS V13.01,2014-10-01 10:20:00,
2014-10-01 03:25:00,66.6,52.3,30.39,South,180,0.0,0.0,60,0.00,,OVC009,0.00,VWS V13.01,2014-10-01 10:25:00,
2014-10-01 03:30:00,66.4,50.7,30.39,South,180,0.0,0.0,57,0.00,,OVC009,0.00,VWS V13.01,2014-10-01 10:30:00,
2014-10-01 03:35:00,66.4,49.2,30.39,South,180,0.0,0.0,54,0.00,,OVC009,0.00,VWS V13.01,2014-10-01 10:35:00,
2014-10-01 03:40:00,66.4,49.2,30.39,South,180,0.0,0.0,54,0.00,,OVC009,0.00,VWS V13.01,2014-10-01 10:40:00,
2014-10-01 03:45:00,66.4,48.8,30.39,South,180,0.0,0.0,53,0.00,,OVC009,0.00,VWS V13.01,2014-10-01 10:45:00,
2014-10-01 03:50:00,66.2,47.6,30.39,South,180,0.0,0.0,51,0.00,,OVC009,0.00,VWS V13.01,2014-10-01 10:50:00,
2014-10-01 03:55:00,66.2,47.0,30.39,South,180,0.0,0.0,50,0.00,,OVC009,0.00,VWS V13.01,2014-10-01 10:55:00,
2014-10-01 04:00:00,66.2,47.0,30.39,South,180,0.0,0.0,50,0.00,,OVC012,0.00,VWS V13.01,2014-10-01 11:00:00,
2014-10-01 04:06:00,66.2,47.0,30.39,South,180,0.0,0.0,50,0.00,,OVC012,0.00,VWS V13.01,2014-10-01 11:06:00,
2014-10-01 04:11:00,66.0,46.9,30.39,South,180,0.0,0.0,50,0.00,,OVC012,0.00,VWS V13.01,2014-10-01 11:11:00,
2014-10-01 04:16:00,66.0,46.9,30.39,South,180,0.0,0.0,50,0.00,,OVC012,0.00,VWS V13.01,2014-10-01 11:16:00,
2014-10-01 04:21:00,66.0,47.4,30.39,South,180,0.0,0.0,51,0.00,,OVC012,0.00,VWS V13.01,2014-10-01 11:21:00,
2014-10-01 04:26:00,66.0,47.4,30.39,South,180,0.0,0.0,51,0.00,,OVC012,0.00,VWS V13.01,2014-10-01 11:26:00,
2014-10-01 04:31:00,65.8,47.2,30.39,South,180,0.0,0.0,51,0.00,,OVC012,0.00,VWS V13.01,2014-10-01 11:31:00,
2014-10-01 04:36:00,65.7,47.1,30.39,South,180,0.0,0.0,51,0.00,,OVC012,0.00,VWS V13.01,2014-10-01 11:36:00,
2014-10-01 04:41:00,65.7,47.6,30.39,South,180,0.0,0.0,52,0.00,,OVC012,0.00,VWS V13.01,2014-10-01 11:41:00,
2014-10-01 04:46:00,65.5,47.4,30.39,South,180,0.0,0.0,52,0.00,,OVC012,0.00,VWS V13.01,2014-10-01 11:46:00,
2014-10-01 04:49:00,65.3,47.2,30.39,South,180,0.0,0.0,52,0.00,,OVC012,0.00,VWS V13.01,2014-10-01 11:49:00,
2014-10-01 04:54:00,65.1,47.1,30.39,South,180,0.0,0.0,52,0.00,,OVC012,0.00,VWS V13.01,2014-10-01 11:54:00,
2014-10-01 04:59:00,64.9,47.4,30.39,South,180,0.0,0.0,53,0.00,,OVC012,0.00,VWS V13.01,2014-10-01 11:59:00,
2014-10-01 05:04:00,64.8,47.2,30.39,South,180,0.0,0.0,53,0.00,,OVC012,0.00,VWS V13.01,2014-10-01 12:04:00,
2014-10-01 05:09:00,64.8,48.2,30.39,South,180,0.0,0.0,55,0.00,,OVC012,0.00,VWS V13.01,2014-10-01 12:09:00,
2014-10-01 05:14:00,64.8,48.7,30.39,South,180,0.0,0.0,56,0.00,,OVC012,0.00,VWS V13.01,2014-10-01 12:14:00,
2014-10-01 05:19:00,64.6,49.0,30.39,South,180,0.0,0.0,57,0.00,,OVC012,0.00,VWS V13.01,2014-10-01 12:19:00,
2014-10-01 05:24:00,64.6,50.0,30.39,South,180,0.0,0.0,59,0.00,,OVC012,0.00,VWS V13.01,2014-10-01 12:24:00,
2014-10-01 05:29:00,64.4,49.8,30.39,South,180,0.0,0.0,59,0.00,,OVC012,0.00,VWS V13.01,2014-10-01 12:29:00,
2014-10-01 05:34:00,64.4,49.8,30.39,South,180,0.0,0.0,59,0.00,,OVC012,0.00,VWS V13.01,2014-10-01 12:34:00,
2014-10-01 05:39:00,64.4,50.2,30.39,South,180,0.0,0.0,60,0.00,,OVC012,0.00,VWS V13.01,2014-10-01 12:39:00,
2014-10-01 05:44:00,64.4,51.1,30.39,South,180,0.0,0.0,62,0.00,,OVC012,0.00,VWS V13.01,2014-10-01 12:44:00,
2014-10-01 05:49:00,64.4,51.5,30.39,South,180,0.0,0.0,63,0.00,,OVC012,0.00,VWS V13.01,2014-10-01 12:49:00,
2014-10-01 05:54:00,64.4,52.0,30.39,South,180,0.0,0.0,64,0.00,,OVC012,0.00,VWS V13.01,2014-10-01 12:54:00,
2014-10-01 05:59:00,64.4,52.4,30.42,South,180,0.0,0.0,65,0.00,,OVC012,0.00,VWS V13.01,2014-10-01 12:59:00,
2014-10-01 06:04:00,64.6,52.6,30.42,South,180,0.0,0.0,65,0.00,,BKN010,0.00,VWS V13.01,2014-10-01 13:04:00,